Flag for U.S.A. Weather past 2 weeks in Rancho Cucamonga, California, U.S.A.

Now
97 °F

Passing clouds.


Feels Like: 93 °F
Forecast: 67 / 94 °F
Wind: 14 mph from West

Location: Ontario International Airport

Current Time: Aug 30, 2014 at 5:42:56 PM

Latest Report: Aug 30, 2014 at 4:53 PM


Visibility: 10 mi

Pressure: 29.69 "Hg

Humidity: 18%

Dew point: 47 °F

Location of Rancho CucamongaLocation

Historic Weather in Rancho Cucamonga — Graph

°F

Rancho Cucamonga temperature yesterday

Maximum temperature yesterday: 99 °F (at 2:53 PM)
Minimum temperature yesterday: 70 °F (at 3:53 AM)
Average temperature yesterday: 82 °F

Past Weeks' High & Low Weather Summary

 TemperatureHumidityPressure
High99 °F (Aug 28, 1:53 PM)90% (Aug 23, 4:53 AM)30.01 "Hg (Aug 23, 4:53 AM)
Low62 °F (Aug 24, 6:00 AM)15% (Aug 29, 2:53 PM)29.70 "Hg (Aug 30, 3:53 PM)
Average78 °F48%29.87 "Hg
* Reported Aug 15 3:53 PM — Aug 30 3:53 PM, Rancho Cucamonga, Weather by CustomWeather, © 2014

Note: Actual official high and low records may vary slightly from our data, if they occured in-between our weather recording intervals... More about our weather records

Advertising

Rancho Cucamonga weather history for previous 24 hours

 ConditionsComfort  
Time TempWeatherWind HumidityBarometerVisibility
3:53 PM
Aug 30
99 °FPassing clouds.12 mph16%29.70 "Hg10 mi
2:53 PM98 °FPassing clouds.8 mph15%29.71 "Hg10 mi
1:53 PM97 °FPassing clouds.8 mph19%29.74 "Hg9 mi
12:53 PM93 °FPassing clouds.5 mph18%29.76 "Hg9 mi
11:53 AM90 °FPassing clouds.3 mph24%29.78 "Hg9 mi
10:53 AM84 °FPassing clouds.No wind38%29.80 "Hg9 mi
9:53 AM79 °FPassing clouds.No wind48%29.80 "Hg8 mi
8:53 AM74 °FPassing clouds.No wind60%29.80 "Hg8 mi
7:53 AM69 °FPassing clouds.No wind70%29.80 "Hg9 mi
6:53 AM65 °FPassing clouds.No wind78%29.80 "Hg9 mi
5:53 AM67 °FPassing clouds.No wind73%29.77 "Hg10 mi
4:53 AM66 °FClear.No wind75%29.77 "Hg10 mi
3:53 AM68 °FClear.No wind70%29.76 "Hg10 mi
2:53 AM70 °FClear.No wind66%29.76 "Hg10 mi
1:53 AM70 °FClear.No wind66%29.77 "Hg10 mi
12:53 AM70 °FClear.No wind66%29.78 "Hg10 mi
11:53 PM
Aug 29
72 °FClear.No wind61%29.78 "Hg10 mi
10:53 PM74 °FClear.5 mph57%29.79 "Hg10 mi
9:53 PM76 °FClear.5 mph52%29.79 "Hg10 mi
8:53 PM79 °FClear.8 mph48%29.79 "Hg10 mi
7:53 PM83 °FPassing clouds.7 mph38%29.76 "Hg10 mi
6:53 PM88 °FSunny.10 mph27%29.74 "Hg10 mi
5:53 PM92 °FSunny.12 mph21%29.74 "Hg10 mi
Weather by CustomWeather, © 2014

See weather overviewHow to use our weather pages